Weather History for Oak Ridge, TN

Change the Weather History Date:

Sunday, May 19, 2013

  Actual Average (KTYS) Record (KTYS)
Temperature  
Mean Temperature 69 °F 68 °F  
Max Temperature 75 °F 79 °F 93 °F (1962)
Min Temperature 62 °F 57 °F 38 °F (1976)
Degree Days  
Heating Degree Days 0 1  
Month to date heating degree days 48  
Since 1 July heating degree days 3623  
Cooling Degree Days 4 4  
Month to date cooling degree days 56  
Year to date cooling degree days 93  
Growing Degree Days 19 (Base 50)    
Moisture  
Dew Point 66 °F    
Average Humidity 92    
Maximum Humidity 100    
Minimum Humidity 78    
Precipitation  
Precipitation 0.23 in 0.15 in 2.06 in (1929)
Month to date precipitation 2.88  
Year to date precipitation 19.81  
Snow  
Snow 0.00 in 0.00 in - ()
Month to date snowfall 0.0  
Since 1 July snowfall 6.5  
Snow Depth -    
Sea Level Pressure  
Sea Level Pressure 30.04 in    
Wind  
Wind Speed 2 mph (SW)    
Max Wind Speed 13 mph    
Max Gust Speed 29 mph    
Visibility 8 miles    
Events Rain    
T = Trace of Precipitation, MM = Missing Value Source: NWS Daily Summary

Daily Weather History Graph

Daily Weather History Graph

Search for Another Location

Airport:

Trip Planner

Search our weather history database for the weather conditions in past years. The results will help you decide how hot, cold, wet, or windy it might be!

Date:

Astronomy

May. 19, 2013 Rise Set
Actual Time 6:27 AM EDT 8:39 PM EDT
Civil Twilight 5:59 AM EDT 9:08 PM EDT
Nautical Twilight 5:23 AM EDT 9:43 PM EDT
Astronomical Twilight 4:45 AM EDT 10:22 PM EDT
Moon 2:53 PM EDT (5/19) 2:39 AM EDT (5/19)
Length of Visible Light 15h 09m
Length of Day
14h 11m
Waxing Gibbous, 65% of the Moon is Illuminated
May 19
Waxing Gibbous
May 25
Full
May 31
Last Quarter
Jun 8
New
Jun 16
First Quarter

Hourly Weather History & Observations

Time (EDT) Temp. Dew Point Humidity Pressure Visibility Wind Dir Wind Speed Gust Speed Precip Events Conditions
12:39 AM 69.8 °F 66.2 °F 88% 30.05 in 10.0 mi South 3.5 mph - 0.00 in   Overcast
12:53 AM 68.0 °F 66.9 °F 96% 30.03 in 10.0 mi Calm Calm - 0.00 in   Overcast
1:53 AM 68.0 °F 66.9 °F 96% 30.02 in 10.0 mi Calm Calm - N/A   Overcast
2:53 AM 68.0 °F 66.9 °F 96% 30.00 in 10.0 mi Calm Calm - N/A   Overcast
3:25 AM 68.0 °F 66.2 °F 94% 30.03 in 9.0 mi Calm Calm - 0.00 in   Overcast
3:35 AM 68.0 °F 66.2 °F 94% 30.03 in 7.0 mi Calm Calm - 0.00 in   Overcast
3:49 AM 68.0 °F 66.2 °F 94% 30.03 in 6.0 mi Calm Calm - 0.01 in Rain Light Rain
3:53 AM 68.0 °F 66.9 °F 96% 30.00 in 8.0 mi Calm Calm - 0.01 in Rain Light Rain
4:09 AM 68.0 °F 66.2 °F 94% 30.04 in 2.0 mi South 3.5 mph - 0.00 in Rain Light Rain
4:16 AM 68.0 °F 66.2 °F 94% 30.04 in 1.2 mi Calm Calm - 0.11 in Rain Rain
4:20 AM 68.0 °F 66.2 °F 94% 30.04 in 3.0 mi Calm Calm - 0.11 in Rain Light Rain
4:41 AM 68.0 °F 66.2 °F 94% 30.04 in 9.0 mi Calm Calm - 0.12 in Rain Light Rain
4:53 AM 68.0 °F 66.9 °F 96% 30.01 in 10.0 mi Calm Calm - 0.12 in   Overcast
5:07 AM 68.0 °F 66.2 °F 94% 30.05 in 8.0 mi Calm Calm - N/A   Overcast
5:33 AM 68.0 °F 66.2 °F 94% 30.05 in 7.0 mi Calm Calm - N/A   Overcast
5:53 AM 68.0 °F 66.9 °F 96% 30.01 in 7.0 mi Calm Calm - N/A   Overcast
6:29 AM 68.0 °F 66.2 °F 94% 30.05 in 6.0 mi Calm Calm - N/A   Overcast
6:53 AM 68.0 °F 66.9 °F 96% 30.03 in 6.0 mi Calm Calm - N/A   Overcast
7:53 AM 68.0 °F 66.9 °F 96% 30.04 in 7.0 mi Calm Calm - N/A   Overcast
8:23 AM 68.0 °F 66.2 °F 94% 30.08 in 10.0 mi Calm Calm - N/A   Overcast
8:46 AM 69.8 °F 66.2 °F 88% 30.08 in 10.0 mi Calm Calm - N/A   Overcast
8:53 AM 70.0 °F 66.9 °F 90% 30.05 in 10.0 mi Calm Calm - N/A   Overcast
9:43 AM 69.8 °F 66.2 °F 88% 30.08 in 10.0 mi Calm Calm - N/A   Overcast
9:53 AM 71.1 °F 68.0 °F 90% 30.04 in 10.0 mi Calm Calm - N/A   Overcast
10:36 AM 71.6 °F 68.0 °F 88% 30.07 in 10.0 mi Calm Calm - 0.00 in Rain Light Rain
10:53 AM 71.1 °F 68.0 °F 90% 30.03 in 10.0 mi Calm Calm - 0.00 in   Overcast
11:53 AM 75.0 °F 68.0 °F 79% 30.02 in 10.0 mi Calm Calm - N/A   Mostly Cloudy
12:23 PM 73.4 °F 66.2 °F 78% 30.05 in 10.0 mi Calm Calm - N/A   Mostly Cloudy
12:53 PM 73.0 °F 68.0 °F 84% 30.04 in 10.0 mi West 4.6 mph - N/A   Mostly Cloudy
1:13 PM 69.8 °F 64.4 °F 83% 30.08 in 10.0 mi WSW 12.7 mph 28.8 mph 0.00 in Rain Light Rain
1:22 PM 66.2 °F 62.6 °F 88% 30.09 in 2.5 mi SW 8.1 mph 21.9 mph 0.00 in Rain Rain
1:30 PM 66.2 °F 64.4 °F 94% 30.09 in 1.2 mi South 9.2 mph 17.3 mph 0.06 in Rain Rain
1:36 PM 66.2 °F 64.4 °F 94% 30.10 in 3.0 mi South 6.9 mph - 0.06 in Rain Light Rain
1:53 PM 66.0 °F 64.0 °F 93% 30.06 in 8.0 mi Calm Calm - 0.07 in   Mostly Cloudy
2:15 PM 66.2 °F 64.4 °F 94% 30.07 in 2.5 mi North 5.8 mph - 0.02 in Rain Rain
2:23 PM 66.2 °F 64.4 °F 94% 30.07 in 4.0 mi Calm Calm - 0.03 in Rain Light Rain
2:35 PM 66.2 °F 66.2 °F 100% 30.08 in 7.0 mi Calm Calm - 0.03 in   Overcast
2:53 PM 66.9 °F 66.0 °F 97% 30.04 in 6.0 mi Calm Calm - 0.03 in   Overcast
3:19 PM 68.0 °F 66.2 °F 94% 30.06 in 7.0 mi SW 3.5 mph - N/A   Overcast
3:48 PM 68.0 °F 66.2 °F 94% 30.04 in 9.0 mi WSW 4.6 mph - N/A   Partly Cloudy
3:53 PM 68.0 °F 66.0 °F 93% 30.02 in 10.0 mi WSW 3.5 mph - N/A   Partly Cloudy
4:11 PM 68.0 °F 66.2 °F 94% 30.04 in 10.0 mi WSW 5.8 mph - N/A   Partly Cloudy
4:37 PM 66.2 °F 64.4 °F 94% 30.04 in 10.0 mi WSW 8.1 mph - N/A   Mostly Cloudy
4:53 PM 66.9 °F 64.0 °F 90% 30.00 in 10.0 mi Variable 4.6 mph - N/A   Scattered Clouds
5:42 PM 66.2 °F 64.4 °F 94% 30.03 in 10.0 mi Variable 4.6 mph - N/A   Mostly Cloudy
5:53 PM 66.9 °F 63.0 °F 87% 30.00 in 10.0 mi Variable 6.9 mph - N/A   Mostly Cloudy
6:09 PM 66.2 °F 64.4 °F 94% 30.03 in 10.0 mi Variable 4.6 mph - N/A   Scattered Clouds
6:53 PM 66.9 °F 64.0 °F 90% 30.01 in 10.0 mi South 5.8 mph - N/A   Clear
7:53 PM 66.0 °F 64.0 °F 93% 30.02 in 10.0 mi SSW 4.6 mph - N/A   Clear
8:53 PM 64.9 °F 63.0 °F 93% 30.03 in 10.0 mi Calm Calm - N/A   Clear
9:53 PM 64.0 °F 63.0 °F 96% 30.03 in 10.0 mi Calm Calm - N/A   Clear
10:53 PM 63.0 °F 62.1 °F 97% 30.04 in 10.0 mi Calm Calm - N/A   Clear
11:53 PM 62.1 °F 61.0 °F 96% 30.03 in 9.0 mi Calm Calm - N/A   Clear